[[{"header":{"parameterUnit":"m.s-1","parameterCategory":2,"la1":30.2991,"la2":30.254,"lo1":-89.0895,"lo2":-89.0444,"dy":0.0017,"dx":0.0017,"nx":28,"ny":28,"refTime":"2024-12-12T03:00:00:Z","depth":"0","parameterNumber":2,"parameterNumberName":"U-component_of_CURRENTS"},"data":[0,0,0,0,0,0,0,0,0,0,0,0,0,0,0,0,0,0,0,0,0,0,0,0,0,0,0,0,0,0,0,0,0,0,0,0,0,0,0,0,0,0,0,0,0,0,0,0,0,0,0,0,0,0,0,0,0,0,-0.2487,-0.2488,0,-0.2507,-0.2507,-0.2507,-0.2479,-0.2478,-0.2478,-0.2477,-0.2423,-0.2422,-0.2421,0,0,0,0,0,0,0,0,0,0,0,0,0,-0.2406,-0.2407,-0.2487,-0.2488,-0.2488,-0.2507,-0.2507,-0.2507,-0.2479,-0.2478,-0.2478,-0.2477,-0.2423,-0.2422,-0.2421,0,0,0,0,0,0,0,0,0,0,0,0,0,-0.2432,-0.2408,-0.2487,-0.2479,-0.2479,-0.2507,-0.2507,-0.2507,-0.2479,-0.2478,-0.2477,-0.2477,-0.2423,-0.2422,-0.2421,-0.2433,0,0,-0.2417,-0.2416,0,0,0,0,0,0,0,0,-0.243,-0.2434,-0.248,-0.248,-0.248,-0.2493,-0.2458,-0.2479,-0.248,-0.2476,-0.2477,-0.2476,-0.2442,-0.2439,-0.2441,-0.243,-0.2428,-0.2417,-0.2416,-0.2415,-0.2415,0,0,0,0,0,0,0,-0.2429,-0.2433,-0.2491,-0.2481,-0.2481,-0.2468,-0.2471,-0.2462,-0.246,-0.2476,-0.2475,-0.2483,-0.2441,-0.2443,-0.244,-0.2427,-0.2417,-0.2416,-0.2415,-0.2414,-0.2432,-0.2433,0,0,0,0,0,0,-0.2436,-0.2432,-0.2491,-0.2492,-0.2456,-0.2471,-0.2473,-0.2487,-0.2462,-0.2459,-0.2484,-0.2482,-0.2445,-0.2441,-0.2437,-0.2458,-0.2415,-0.2414,-0.2414,-0.2431,-0.2432,-0.2433,0,0,0,0,0,0,-0.2434,-0.2441,-0.249,-0.2465,-0.247,-0.2474,-0.2489,-0.2488,-0.2488,-0.2469,-0.2464,-0.2485,-0.2444,-0.2439,-0.2438,-0.2455,-0.2414,-0.2413,-0.2429,-0.2431,-0.2433,-0.2493,0,0,0,0,0,0,-0.2432,-0.244,-0.2446,-0.2466,-0.2472,-0.2515,-0.249,-0.2489,-0.2496,-0.2493,-0.2469,-0.2463,-0.2443,-0.2441,-0.2437,-0.2452,-0.2412,-0.2428,-0.243,-0.2432,-0.249,-0.2497,-0.2503,0,0,0,0,0,-0.2429,-0.2448,-0.2446,-0.2453,-0.2482,-0.2516,-0.2519,-0.2515,-0.2497,-0.2508,-0.2491,-0.2463,-0.2452,-0.2441,-0.2436,-0.2452,-0.2426,-0.2429,-0.2432,-0.2487,-0.2496,-0.2503,0,0,0,0,0,0,-0.2412,-0.2448,-0.2446,-0.2473,-0.2496,-0.2513,-0.2521,-0.2519,-0.2515,-0.2506,-0.2479,-0.2473,-0.2478,-0.2461,-0.2448,-0.2465,-0.2435,-0.2437,-0.2479,-0.2487,-0.2493,-0.2493,-0.241,0,0,0,0,0,-0.2413,-0.2434,-0.2467,-0.2485,-0.25,-0.2509,-0.2519,-0.2522,-0.2526,-0.2522,-0.2507,-0.2492,-0.2488,-0.2483,-0.2475,-0.2485,-0.2473,-0.2493,-0.2499,-0.2505,-0.2503,-0.2509,-0.2516,-0.2442,-0.2442,-0.2442,0,0,-0.2409,-0.2432,-0.2442,-0.2482,-0.2495,-0.2527,-0.2512,-0.2536,-0.2555,-0.2517,-0.2527,-0.2513,-0.2496,-0.2508,-0.2508,-0.2494,-0.2524,-0.2509,-0.2514,-0.2508,-0.2512,-0.2519,-0.2526,-0.2444,-0.2444,-0.2444,0,0,-0.2421,-0.2436,-0.2461,-0.2489,-0.2522,-0.2536,-0.2546,-0.2569,-0.2571,-0.2588,-0.2565,-0.2566,-0.2556,-0.2553,-0.2549,-0.2589,-0.2558,-0.2584,-0.2617,-0.2623,-0.2629,-0.2634,-0.2643,-0.2648,-0.2588,-0.2588,-0.2589,0,-0.2412,-0.245,-0.2473,-0.2509,-0.253,-0.2543,-0.2576,-0.2591,-0.2607,-0.2615,-0.2598,-0.2598,-0.2581,-0.26,-0.261,-0.2604,-0.2599,-0.2587,-0.2631,-0.2636,-0.264,-0.2647,-0.2652,-0.2592,-0.2591,-0.2591,-0.2591,0,-0.2446,-0.2478,-0.2497,-0.2545,-0.2574,-0.2604,-0.2637,-0.2657,-0.2657,-0.2667,-0.2683,-0.2669,-0.2665,-0.2667,-0.2646,-0.2671,-0.2657,-0.2639,-0.261,-0.2651,-0.2657,-0.2661,-0.2596,-0.2595,-0.2594,-0.2593,0,0,-0.2417,-0.2503,-0.2507,-0.2536,-0.2594,-0.262,-0.2664,-0.2705,-0.2729,-0.2737,-0.2764,-0.2758,-0.2742,-0.2736,-0.2718,-0.2723,-0.2749,-0.2691,-0.269,-0.2698,-0.2765,-0.2755,-0.2758,-0.2735,-0.2736,-0.2737,-0.2762,0,-0.2431,-0.2498,-0.2541,-0.2597,-0.2632,-0.2671,-0.2712,-0.275,-0.2771,-0.2802,-0.2798,-0.2811,-0.2773,-0.277,-0.2771,-0.2753,-0.276,-0.2744,-0.2725,-0.2724,-0.2709,-0.2762,-0.2706,-0.2724,-0.2766,-0.2766,-0.2767,0,-0.2441,-0.2488,-0.2546,-0.2626,-0.2645,-0.2679,-0.2741,-0.2781,-0.2834,-0.2852,-0.2867,-0.2864,-0.2875,-0.2835,-0.2829,-0.2818,-0.2792,-0.2779,-0.278,-0.2748,-0.2722,-0.2687,-0.2729,-0.2722,-0.2773,-0.2772,-0.2772,0,-0.2396,-0.2485,-0.2527,-0.2555,-0.2649,-0.2677,-0.2719,-0.2783,-0.2818,-0.2876,-0.2902,-0.2918,-0.292,-0.2901,-0.2867,-0.2847,-0.2863,-0.2833,-0.2806,-0.2805,-0.2742,-0.2734,-0.277,-0.283,-0.283,-0.283,-0.283,0,-0.2387,-0.242,-0.2507,-0.2531,-0.2574,-0.2651,-0.2698,-0.2749,-0.2824,-0.287,-0.2908,-0.294,-0.2932,-0.2939,-0.29,-0.2873,-0.2888,-0.2823,-0.2815,-0.2764,-0.2758,-0.2734,-0.2734,-0.2831,-0.2831,-0.2831,-0.2831,0,-0.2327,-0.2391,-0.2437,-0.2529,-0.2552,-0.2576,-0.2668,-0.271,-0.2791,-0.2855,-0.2874,-0.2952,-0.2972,-0.2969,-0.2955,-0.2914,-0.2859,-0.2875,-0.2821,-0.2806,-0.2766,-0.277,-0.2753,-0.2679,-0.2853,-0.2853,-0.2853,0,-0.2303,-0.2319,-0.2401,-0.2421,-0.2458,-0.2511,-0.2553,-0.2662,-0.2715,-0.2855,-0.2882,-0.2948,-0.2983,-0.2985,-0.295,-0.2917,-0.286,-0.2829,-0.2778,-0.2772,-0.2771,-0.2739,-0.2674,-0.2723,-0.2722,-0.2721,-0.2721,0,-0.2235,-0.2258,-0.2293,-0.2333,-0.2374,-0.2423,-0.2496,-0.2538,-0.268,-0.2754,-0.2853,-0.2903,-0.2962,-0.294,-0.2923,-0.2869,-0.278,-0.2809,-0.2812,-0.2688,-0.2645,-0.2566,-0.2706,-0.2713,-0.2714,-0.2714,-0.2715,-0.2715,-0.2158,-0.2156,-0.2194,-0.2223,-0.227,-0.2309,-0.231,-0.2427,-0.2499,-0.2614,-0.2752,-0.2846,-0.2907,-0.289,-0.2847,-0.2771,-0.2738,-0.2684,-0.2696,-0.2669,-0.2581,-0.2713,-0.2705,-0.2706,-0.2706,-0.2707,-0.2707,0,-0.2051,-0.2061,-0.2084,-0.211,-0.2111,-0.2177,-0.2246,-0.2242,-0.2295,-0.2486,-0.2581,-0.2785,-0.2784,-0.2825,-0.2801,-0.27,-0.2588,-0.2612,-0.2551,-0.249,-0.2619,-0.2597,-0.2554,-0.2554,-0.2554,-0.2554,-0.2554,-0.2554,-0.1994,-0.1968,-0.1981,-0.1932,-0.195,-0.1904,-0.1912,-0.1945,-0.2041,-0.2211,-0.2417,-0.2632,-0.2711,-0.2926,-0.2832,-0.2696,-0.2574,-0.25,-0.2473,-0.2586,-0.2593,-0.26,-0.258,-0.2533,-0.2533,-0.227,-0.2269,-0.2267]},{"header":{"parameterUnit":"m.s-1","parameterCategory":2,"la1":30.2991,"la2":30.254,"lo1":-89.0895,"lo2":-89.0444,"dy":0.0017,"dx":0.0017,"nx":28,"ny":28,"refTime":"2024-12-12T03:00:00:Z","depth":"0","parameterNumber":3,"parameterNumberName":"V-component_of_CURRENTS"},"data":[0,0,0,0,0,0,0,0,0,0,0,0,0,0,0,0,0,0,0,0,0,0,0,0,0,0,0,0,0,0,0,0,0,0,0,0,0,0,0,0,0,0,0,0,0,0,0,0,0,0,0,0,0,0,0,0,0,0,-0.0227,-0.0226,0,-0.0144,-0.0143,-0.0142,-0.0091,-0.0091,-0.0091,-0.0091,0.0025,0.0028,0.003,0,0,0,0,0,0,0,0,0,0,0,0,0,-0.0283,-0.0283,-0.0227,-0.0226,-0.0225,-0.0144,-0.0143,-0.0142,-0.0091,-0.0091,-0.0091,-0.0091,0.0024,0.0027,0.0031,0,0,0,0,0,0,0,0,0,0,0,0,0,-0.0235,-0.0283,-0.0227,-0.0191,-0.0187,-0.0145,-0.0143,-0.0142,-0.0091,-0.0091,-0.0091,-0.009,0.0023,0.0027,0.0031,0.0054,0,0,0.0045,0.0047,0,0,0,0,0,0,0,0,-0.0238,-0.0233,-0.0197,-0.0194,-0.0189,-0.0129,-0.0121,-0.0075,-0.0091,-0.0126,-0.0091,-0.009,-0.0025,-0.0016,0.0,0.0059,0.0064,0.0045,0.0048,0.005,0.0051,0,0,0,0,0,0,0,-0.0241,-0.0235,-0.0193,-0.0197,-0.0191,-0.0159,-0.0153,-0.0112,-0.0076,-0.0123,-0.012,-0.0113,-0.0022,-0.0004,0.0003,0.0066,0.0045,0.0049,0.0052,0.0053,0.0165,0.0165,0,0,0,0,0,0,-0.0257,-0.0239,-0.0196,-0.0191,-0.0215,-0.0159,-0.0151,-0.0147,-0.0077,-0.0067,-0.0113,-0.011,-0.0012,-0.0002,0.0008,0.0043,0.005,0.0054,0.0056,0.0165,0.0165,0.0166,0,0,0,0,0,0,-0.0259,-0.0254,-0.0199,-0.0214,-0.0205,-0.0159,-0.0155,-0.0146,-0.0129,-0.007,-0.0059,-0.0105,-0.0011,0.0001,0.0045,0.0047,0.0056,0.006,0.0164,0.0165,0.0165,0.011,0,0,0,0,0,0,-0.0261,-0.0255,-0.026,-0.0215,-0.0204,-0.0181,-0.0155,-0.0145,-0.0126,-0.0122,-0.006,-0.0049,-0.001,0.0038,0.0049,0.0053,0.0063,0.0164,0.0165,0.0165,0.0112,0.0109,0.0106,0,0,0,0,0,-0.0263,-0.0274,-0.0261,-0.0255,-0.0212,-0.0181,-0.0173,-0.0138,-0.0126,-0.0122,-0.0076,-0.0051,0.005,0.0042,0.0055,0.006,0.0164,0.0164,0.0165,0.0113,0.0109,0.0106,0,0,0,0,0,0,-0.0303,-0.0269,-0.0253,-0.0254,-0.0222,-0.0173,-0.0169,-0.0144,-0.0104,-0.0102,-0.0045,-0.003,0.0007,0.0043,0.0032,0.0095,0.0111,0.0114,0.0066,0.0064,0.0061,0.0039,0.0067,0,0,0,0,0,-0.0314,-0.0313,-0.0271,-0.0272,-0.026,-0.0215,-0.02,-0.0176,-0.0135,-0.0118,-0.0072,-0.0023,0.0021,0.0048,0.009,0.0126,0.0162,0.0138,0.0135,0.0133,0.0125,0.0184,0.0185,0.0168,0.0168,0.0168,0,0,-0.033,-0.0312,-0.0311,-0.0281,-0.0255,-0.0244,-0.0205,-0.0188,-0.0173,-0.0111,-0.0079,-0.0033,0.0028,0.0067,0.0087,0.0097,0.0159,0.0134,0.0131,0.0124,0.0185,0.0186,0.0188,0.0169,0.0169,0.0168,0,0,-0.0367,-0.0346,-0.0358,-0.0335,-0.0303,-0.0271,-0.027,-0.0221,-0.0194,-0.0157,-0.0109,-0.006,0.0004,0.0053,0.0085,0.0094,0.0139,0.0106,0.008,0.0137,0.0139,0.0141,0.0191,0.0198,0.0108,0.0108,0.0108,0,-0.039,-0.0397,-0.0357,-0.036,-0.0347,-0.0289,-0.0295,-0.0256,-0.0198,-0.0174,-0.0157,-0.0051,-0.0001,0.0057,0.0059,0.0088,0.0122,0.0085,0.0132,0.0135,0.0138,0.019,0.0198,0.0106,0.0106,0.0106,0.0107,0,-0.0432,-0.0435,-0.044,-0.0423,-0.0402,-0.0398,-0.0341,-0.0312,-0.0272,-0.0228,-0.0166,-0.0091,-0.0027,-0.0002,0.0031,0.0078,0.0097,0.0117,0.0135,0.0136,0.0191,0.02,0.0102,0.0103,0.0104,0.0104,0,0,-0.0491,-0.0476,-0.0477,-0.0483,-0.0436,-0.0427,-0.0394,-0.0348,-0.0327,-0.0257,-0.0222,-0.0135,-0.009,-0.0051,0.0007,0.0057,0.011,0.0087,0.0091,0.0127,0.0231,0.0288,0.0304,0.0136,0.0137,0.0138,0.0261,0,-0.0538,-0.057,-0.0537,-0.0555,-0.0566,-0.0499,-0.0475,-0.0421,-0.036,-0.0308,-0.0213,-0.0161,-0.0107,-0.0078,-0.0017,0.0078,0.0132,0.0075,0.0233,0.0237,0.0281,0.0316,0.0366,0.0484,0.0271,0.0272,0.0273,0,-0.0589,-0.0605,-0.064,-0.0628,-0.0625,-0.0618,-0.0569,-0.0538,-0.044,-0.0392,-0.0309,-0.0233,-0.0135,-0.0099,0.007,0.0028,0.0118,0.0192,0.0199,0.0276,0.0313,0.0451,0.051,0.072,0.0289,0.0287,0.0286,0,-0.0662,-0.0672,-0.0707,-0.0704,-0.0678,-0.0672,-0.0648,-0.0568,-0.0542,-0.0441,-0.0408,-0.0277,-0.021,-0.0079,0.0089,0.0076,0.0271,0.0278,0.0417,0.0422,0.0509,0.052,0.0783,0.0388,0.0388,0.0388,0.0387,0,-0.0727,-0.0751,-0.0748,-0.0768,-0.08,-0.0748,-0.0752,-0.07,-0.0627,-0.0598,-0.0461,-0.04,-0.0206,-0.0062,0.0079,0.0291,0.0275,0.0422,0.0464,0.0492,0.0499,0.0721,0.0789,0.0392,0.0391,0.039,0.039,0,-0.08,-0.0797,-0.0839,-0.0837,-0.084,-0.0861,-0.0835,-0.0832,-0.0745,-0.07,-0.0671,-0.0489,-0.0289,-0.008,0.0148,0.0283,0.0596,0.0546,0.0566,0.0608,0.0921,0.0981,0.1237,0.1323,0.0716,0.0718,0.072,0,-0.0841,-0.0872,-0.0906,-0.0941,-0.0944,-0.0963,-0.0976,-0.0906,-0.0893,-0.0748,-0.0734,-0.0525,-0.0363,0.0014,0.0298,0.0583,0.0709,0.0779,0.0767,0.0964,0.1063,0.109,0.1144,0.0863,0.0866,0.0868,0.087,0,-0.0916,-0.0925,-0.0962,-0.1041,-0.1076,-0.1107,-0.1112,-0.112,-0.1023,-0.0958,-0.0825,-0.0677,-0.027,0.0101,0.0491,0.066,0.0931,0.0836,0.1048,0.1212,0.1252,0.1345,0.0749,0.0892,0.0889,0.0888,0.0887,0.0886,-0.0963,-0.1014,-0.1068,-0.1137,-0.1188,-0.1237,-0.1263,-0.1244,-0.1213,-0.1091,-0.092,-0.0663,-0.0072,0.0502,0.0714,0.1203,0.1123,0.1337,0.1396,0.1408,0.1495,0.0941,0.1123,0.1122,0.1121,0.1121,0.112,0,-0.1023,-0.1079,-0.1159,-0.124,-0.1315,-0.1311,-0.1345,-0.1351,-0.1324,-0.1149,-0.0984,-0.0339,0.0249,0.0792,0.1498,0.1759,0.1782,0.1883,0.1953,0.198,0.152,0.1533,0.1803,0.1803,0.1803,0.1802,0.1802,0.1802,-0.1057,-0.1149,-0.1195,-0.1331,-0.1387,-0.1463,-0.1484,-0.1469,-0.1367,-0.1079,-0.0728,-0.0438,0.0411,0.1604,0.2271,0.2316,0.2503,0.2484,0.2571,0.2287,0.2241,0.2197,0.223,0.2642,0.2643,0.3011,0.3015,0.3018]}],[{"header":{"parameterUnit":"m.s-1","parameterCategory":2,"la1":30.2991,"la2":30.254,"lo1":-89.0895,"lo2":-89.0444,"dy":0.0017,"dx":0.0017,"nx":28,"ny":28,"refTime":"2024-12-12T03:00:00:Z","depth":"2","parameterNumber":2,"parameterNumberName":"U-component_of_CURRENTS"},"data":[0,0,0,0,0,0,0,0,0,0,0,0,0,0,0,0,0,0,0,0,0,0,0,0,0,0,0,0,0,0,0,0,0,0,0,0,0,0,0,0,0,0,0,0,0,0,0,0,0,0,0,0,0,0,0,0,0,0,-0.2365,-0.2366,0,-0.2384,-0.2384,-0.2384,-0.236,-0.2359,-0.2358,-0.2358,-0.2307,-0.2306,-0.2305,0,0,0,0,0,0,0,0,0,0,0,0,0,-0.2288,-0.2289,-0.2365,-0.2366,-0.2366,-0.2384,-0.2384,-0.2384,-0.236,-0.2359,-0.2358,-0.2358,-0.2307,-0.2306,-0.2305,0,0,0,0,0,0,0,0,0,0,0,0,0,-0.2312,-0.229,-0.2365,-0.2359,-0.2359,-0.2384,-0.2384,-0.2384,-0.236,-0.2359,-0.2358,-0.2357,-0.2308,-0.2306,-0.2305,-0.2314,0,0,-0.2301,-0.2301,0,0,0,0,0,0,0,0,-0.2311,-0.2315,-0.2359,-0.2359,-0.2359,-0.2372,-0.2338,-0.2358,-0.236,-0.2356,-0.2358,-0.2357,-0.2325,-0.2322,-0.2324,-0.2312,-0.231,-0.2301,-0.23,-0.23,-0.23,0,0,0,0,0,0,0,-0.2309,-0.2314,-0.2369,-0.236,-0.236,-0.2348,-0.2351,-0.2342,-0.2341,-0.2356,-0.2355,-0.2363,-0.2324,-0.2325,-0.2322,-0.2309,-0.2301,-0.23,-0.2299,-0.2299,-0.2316,-0.2317,0,0,0,0,0,0,-0.2316,-0.2312,-0.2369,-0.237,-0.2337,-0.2351,-0.2353,-0.2366,-0.2342,-0.234,-0.2364,-0.2362,-0.2328,-0.2324,-0.232,-0.2343,-0.23,-0.2299,-0.2298,-0.2315,-0.2317,-0.2318,0,0,0,0,0,0,-0.2315,-0.2321,-0.2368,-0.2344,-0.2349,-0.2354,-0.2367,-0.2367,-0.2369,-0.235,-0.2345,-0.2367,-0.2327,-0.2322,-0.2322,-0.234,-0.2298,-0.2297,-0.2314,-0.2316,-0.2317,-0.2379,0,0,0,0,0,0,-0.2312,-0.2321,-0.2327,-0.2345,-0.2351,-0.2392,-0.2369,-0.2368,-0.2377,-0.2374,-0.2351,-0.2346,-0.2326,-0.2325,-0.2321,-0.2337,-0.2296,-0.2312,-0.2314,-0.2317,-0.2375,-0.2383,-0.2389,0,0,0,0,0,-0.231,-0.2328,-0.2327,-0.2334,-0.2361,-0.2394,-0.2396,-0.2393,-0.2378,-0.2389,-0.2373,-0.2346,-0.2336,-0.2325,-0.232,-0.2336,-0.2311,-0.2314,-0.2316,-0.2372,-0.2381,-0.2389,0,0,0,0,0,0,-0.2295,-0.2328,-0.2327,-0.2353,-0.2375,-0.2391,-0.24,-0.2398,-0.2395,-0.2388,-0.2361,-0.2356,-0.2362,-0.2345,-0.2332,-0.235,-0.232,-0.2322,-0.2364,-0.2372,-0.2378,-0.2378,-0.2295,0,0,0,0,0,-0.2297,-0.2317,-0.2347,-0.2365,-0.238,-0.2389,-0.2399,-0.2402,-0.2406,-0.2404,-0.2389,-0.2375,-0.2371,-0.2367,-0.2359,-0.2369,-0.2358,-0.2378,-0.2385,-0.239,-0.2388,-0.2393,-0.24,-0.2327,-0.2327,-0.2327,0,0,-0.2294,-0.2315,-0.2325,-0.2363,-0.2376,-0.2406,-0.2392,-0.2416,-0.2435,-0.2398,-0.241,-0.2397,-0.238,-0.2392,-0.2393,-0.2378,-0.2409,-0.2394,-0.2399,-0.2393,-0.2397,-0.2404,-0.241,-0.2329,-0.2328,-0.2328,0,0,-0.2306,-0.2321,-0.2345,-0.2371,-0.2404,-0.2417,-0.2427,-0.245,-0.2454,-0.2471,-0.2449,-0.245,-0.2442,-0.2438,-0.2433,-0.2474,-0.2444,-0.247,-0.2503,-0.2509,-0.2515,-0.2519,-0.2529,-0.2534,-0.2474,-0.2474,-0.2474,0,-0.2299,-0.2335,-0.2356,-0.2391,-0.2412,-0.2425,-0.2457,-0.2472,-0.2489,-0.2497,-0.2481,-0.2483,-0.2466,-0.2484,-0.2495,-0.2489,-0.2485,-0.2473,-0.2517,-0.2522,-0.2526,-0.2534,-0.2539,-0.2477,-0.2477,-0.2477,-0.2476,0,-0.2332,-0.2363,-0.2382,-0.2428,-0.2456,-0.2485,-0.2517,-0.2537,-0.2539,-0.2549,-0.2567,-0.2553,-0.255,-0.2552,-0.2532,-0.2557,-0.2543,-0.2524,-0.2495,-0.2537,-0.2543,-0.2547,-0.2482,-0.2481,-0.248,-0.2479,0,0,-0.2306,-0.2388,-0.2393,-0.242,-0.2476,-0.2502,-0.2545,-0.2585,-0.2609,-0.2619,-0.2646,-0.2642,-0.2627,-0.2621,-0.2603,-0.2608,-0.2636,-0.2578,-0.2577,-0.2585,-0.2652,-0.2641,-0.2644,-0.2622,-0.2623,-0.2623,-0.265,0,-0.232,-0.2385,-0.2426,-0.248,-0.2514,-0.2552,-0.2593,-0.263,-0.2651,-0.2682,-0.268,-0.2693,-0.2657,-0.2656,-0.2657,-0.264,-0.2647,-0.263,-0.2611,-0.2611,-0.2594,-0.2648,-0.2408,-0.2411,-0.2654,-0.2654,-0.2655,0,-0.2331,-0.2376,-0.2433,-0.2509,-0.2528,-0.2562,-0.2623,-0.2662,-0.2715,-0.2733,-0.275,-0.2747,-0.2758,-0.272,-0.2715,-0.2704,-0.2679,-0.2667,-0.2667,-0.2634,-0.2607,-0.2406,-0.2409,-0.2661,-0.266,-0.266,-0.2659,0,-0.2289,-0.2375,-0.2416,-0.2443,-0.2534,-0.2562,-0.2603,-0.2666,-0.27,-0.2759,-0.2785,-0.2801,-0.2805,-0.2786,-0.2754,-0.2734,-0.275,-0.272,-0.2692,-0.2691,-0.2471,-0.245,-0.2718,-0.2718,-0.2718,-0.2718,-0.2717,0,-0.2282,-0.2314,-0.2398,-0.2422,-0.2465,-0.2539,-0.2587,-0.2637,-0.271,-0.2755,-0.2793,-0.2824,-0.2818,-0.2824,-0.2787,-0.276,-0.2775,-0.2709,-0.2701,-0.2489,-0.2471,-0.2666,-0.266,-0.2719,-0.2718,-0.2718,-0.2718,0,-0.2225,-0.2287,-0.2332,-0.2422,-0.2445,-0.247,-0.2559,-0.26,-0.2681,-0.2742,-0.2763,-0.2837,-0.2858,-0.2855,-0.2841,-0.28,-0.2779,-0.2761,-0.2523,-0.2488,-0.2708,-0.2704,-0.2739,-0.2739,-0.2738,-0.2738,-0.2738,0,-0.2203,-0.2219,-0.2299,-0.2319,-0.2356,-0.2409,-0.245,-0.2556,-0.2607,-0.2743,-0.2768,-0.2834,-0.2861,-0.2863,-0.2793,-0.2752,-0.279,-0.2522,-0.2446,-0.2723,-0.2712,-0.2708,-0.2705,-0.2176,-0.2171,-0.2167,-0.2164,0,-0.2138,-0.2162,-0.2196,-0.2236,-0.2277,-0.2323,-0.2394,-0.2434,-0.2572,-0.2639,-0.2733,-0.2776,-0.2801,-0.2665,-0.2634,-0.2563,-0.2514,-0.2449,-0.2778,-0.223,-0.22,-0.2187,-0.22,-0.213,-0.2134,-0.2136,-0.2138,-0.2139,-0.2065,-0.2064,-0.2101,-0.213,-0.2176,-0.2212,-0.2211,-0.2307,-0.2369,-0.2428,-0.2582,-0.2563,-0.2557,-0.2394,-0.2305,-0.2215,-0.2376,-0.2237,-0.2244,-0.2257,-0.2209,-0.2183,-0.2101,-0.2104,-0.2107,-0.2109,-0.2111,0,-0.1955,-0.1972,-0.1994,-0.2019,-0.2012,-0.2085,-0.2149,-0.2106,-0.2126,-0.2217,-0.2263,-0.2066,-0.2019,-0.2019,-0.1844,-0.1843,-0.1766,-0.1754,-0.1631,-0.1667,-0.1698,-0.1617,-0.1354,-0.1352,-0.135,-0.1349,0,0,-0.1898,-0.187,-0.1882,-0.1829,-0.1853,-0.1789,-0.1794,-0.1753,-0.176,-0.1704,-0.1699,-0.1868,-0.195,-0.1636,-0.1579,-0.1444,-0.1527,-0.1367,-0.1969,-0.1856,-0.1884,-0.1971,-0.1888,0,0,0,0,0]},{"header":{"parameterUnit":"m.s-1","parameterCategory":2,"la1":30.2991,"la2":30.254,"lo1":-89.0895,"lo2":-89.0444,"dy":0.0017,"dx":0.0017,"nx":28,"ny":28,"refTime":"2024-12-12T03:00:00:Z","depth":"2","parameterNumber":3,"parameterNumberName":"V-component_of_CURRENTS"},"data":[0,0,0,0,0,0,0,0,0,0,0,0,0,0,0,0,0,0,0,0,0,0,0,0,0,0,0,0,0,0,0,0,0,0,0,0,0,0,0,0,0,0,0,0,0,0,0,0,0,0,0,0,0,0,0,0,0,0,-0.0215,-0.0214,0,-0.0134,-0.0133,-0.0132,-0.0081,-0.0081,-0.0081,-0.0081,0.0033,0.0035,0.0038,0,0,0,0,0,0,0,0,0,0,0,0,0,-0.027,-0.0269,-0.0215,-0.0214,-0.0213,-0.0134,-0.0133,-0.0131,-0.0081,-0.0081,-0.0081,-0.0081,0.0032,0.0035,0.0039,0,0,0,0,0,0,0,0,0,0,0,0,0,-0.0222,-0.0269,-0.0215,-0.0179,-0.0176,-0.0134,-0.0132,-0.0131,-0.0081,-0.0081,-0.0081,-0.0081,0.0031,0.0035,0.0039,0.0061,0,0,0.0052,0.0054,0,0,0,0,0,0,0,0,-0.0225,-0.022,-0.0186,-0.0182,-0.0177,-0.0118,-0.011,-0.0065,-0.0081,-0.0116,-0.0081,-0.0081,-0.0016,-0.0008,0.0008,0.0067,0.0071,0.0053,0.0055,0.0057,0.0058,0,0,0,0,0,0,0,-0.0228,-0.0223,-0.0181,-0.0185,-0.018,-0.0148,-0.0142,-0.0101,-0.0067,-0.0113,-0.0109,-0.0102,-0.0013,0.0004,0.0012,0.0073,0.0053,0.0056,0.0059,0.0061,0.017,0.0171,0,0,0,0,0,0,-0.0244,-0.0226,-0.0184,-0.0179,-0.0202,-0.0148,-0.014,-0.0137,-0.0067,-0.0057,-0.0103,-0.01,-0.0003,0.0006,0.0016,0.005,0.0057,0.0061,0.0064,0.017,0.017,0.0171,0,0,0,0,0,0,-0.0245,-0.0241,-0.0187,-0.0201,-0.0193,-0.0148,-0.0144,-0.0135,-0.0119,-0.006,-0.0049,-0.0096,-0.0003,0.001,0.0052,0.0055,0.0063,0.0067,0.017,0.017,0.0171,0.0117,0,0,0,0,0,0,-0.0247,-0.0242,-0.0247,-0.0203,-0.0192,-0.017,-0.0144,-0.0134,-0.0116,-0.0112,-0.0051,-0.004,-0.0002,0.0046,0.0057,0.0061,0.007,0.0169,0.017,0.017,0.0119,0.0116,0.0113,0,0,0,0,0,-0.025,-0.0261,-0.0247,-0.0242,-0.02,-0.017,-0.0162,-0.0128,-0.0116,-0.0112,-0.0067,-0.0042,0.0057,0.0049,0.0062,0.0068,0.0169,0.017,0.017,0.012,0.0116,0.0113,0,0,0,0,0,0,-0.0289,-0.0255,-0.024,-0.0241,-0.021,-0.0162,-0.0158,-0.0133,-0.0095,-0.0092,-0.0036,-0.0022,0.0015,0.005,0.004,0.0102,0.0117,0.012,0.0074,0.0071,0.0069,0.0048,0.0074,0,0,0,0,0,-0.03,-0.0299,-0.0258,-0.026,-0.0248,-0.0204,-0.0188,-0.0165,-0.0125,-0.0109,-0.0063,-0.0015,0.0029,0.0055,0.0096,0.0131,0.0168,0.0144,0.0141,0.0139,0.0131,0.019,0.0191,0.0173,0.0173,0.0173,0,0,-0.0316,-0.0298,-0.0297,-0.0268,-0.0242,-0.0232,-0.0194,-0.0177,-0.0162,-0.0102,-0.007,-0.0025,0.0035,0.0074,0.0094,0.0104,0.0164,0.014,0.0137,0.0131,0.0191,0.0192,0.0194,0.0174,0.0173,0.0173,0,0,-0.0352,-0.0332,-0.0344,-0.0321,-0.029,-0.0258,-0.0257,-0.021,-0.0183,-0.0146,-0.0099,-0.0051,0.0012,0.006,0.0092,0.0101,0.0145,0.0112,0.0088,0.0144,0.0146,0.0148,0.0197,0.0204,0.0115,0.0115,0.0115,0,-0.0375,-0.0381,-0.0342,-0.0345,-0.0333,-0.0276,-0.0282,-0.0243,-0.0186,-0.0162,-0.0146,-0.0042,0.0007,0.0065,0.0067,0.0095,0.0129,0.0092,0.014,0.0143,0.0146,0.0196,0.0204,0.0112,0.0113,0.0113,0.0113,0,-0.0417,-0.0418,-0.0423,-0.0407,-0.0386,-0.0382,-0.0326,-0.0297,-0.0258,-0.0215,-0.0154,-0.008,-0.0018,0.0008,0.004,0.0087,0.0105,0.0125,0.0143,0.0144,0.0197,0.0207,0.0109,0.011,0.011,0.0111,0,0,-0.0475,-0.0459,-0.046,-0.0465,-0.0419,-0.041,-0.0377,-0.0331,-0.0311,-0.0241,-0.0207,-0.0121,-0.0077,-0.0039,0.0018,0.0068,0.012,0.0096,0.01,0.0136,0.0239,0.0291,0.0307,0.0146,0.0147,0.0148,0.0268,0,-0.052,-0.0551,-0.0519,-0.0535,-0.0545,-0.0479,-0.0455,-0.0402,-0.0342,-0.0291,-0.0197,-0.0146,-0.0094,-0.0066,-0.0005,0.0088,0.0142,0.0085,0.024,0.0245,0.0284,0.0319,0.0253,0.0358,0.0277,0.0279,0.028,0,-0.0571,-0.0585,-0.0619,-0.0606,-0.0602,-0.0596,-0.0546,-0.0515,-0.0419,-0.0371,-0.029,-0.0215,-0.0119,-0.0085,0.0082,0.0041,0.0129,0.0202,0.0209,0.028,0.0315,0.0345,0.0378,0.0296,0.0295,0.0294,0.0293,0,-0.0643,-0.0651,-0.0685,-0.0681,-0.0655,-0.0649,-0.0625,-0.0545,-0.0519,-0.042,-0.0388,-0.0258,-0.0193,-0.0064,0.0101,0.0088,0.0279,0.0287,0.042,0.0424,0.0412,0.0413,0.0396,0.0396,0.0396,0.0395,0.0395,0,-0.0706,-0.0729,-0.0725,-0.0744,-0.0775,-0.0724,-0.0726,-0.0676,-0.0603,-0.0575,-0.0439,-0.0381,-0.0188,-0.0048,0.0091,0.0296,0.0283,0.0424,0.0465,0.0393,0.0391,0.0369,0.0364,0.04,0.0399,0.0398,0.0397,0,-0.0778,-0.0774,-0.0815,-0.0812,-0.0814,-0.0836,-0.081,-0.0806,-0.072,-0.0676,-0.0648,-0.0469,-0.0274,-0.0068,0.0157,0.0288,0.0473,0.0544,0.0448,0.0476,0.0577,0.0569,0.0702,0.0705,0.0707,0.0709,0.0711,0,-0.0818,-0.0849,-0.0881,-0.0915,-0.0918,-0.0936,-0.0949,-0.0879,-0.0867,-0.0725,-0.0712,-0.0508,-0.0351,0.0017,0.0274,0.0547,0.0546,0.0647,0.0621,0.0585,0.0612,0.0599,0.0587,0.058,0.058,0.0581,0.0581,0,-0.0892,-0.0902,-0.0938,-0.1015,-0.1049,-0.1079,-0.1084,-0.1091,-0.0995,-0.0931,-0.0804,-0.0661,-0.0285,0.0014,0.0386,0.0534,0.0601,0.0667,0.0667,0.0516,0.0482,0.0504,0.0494,0.0585,0.0585,0.0585,0.0584,0.0584,-0.094,-0.099,-0.1042,-0.111,-0.116,-0.1207,-0.1233,-0.1209,-0.1179,-0.1058,-0.0903,-0.0668,-0.034,0.0173,0.044,0.0684,0.0686,0.0731,0.0725,0.0719,0.0688,0.066,0.079,0.0791,0.0792,0.0792,0.0793,0,-0.0997,-0.1055,-0.1133,-0.1211,-0.1281,-0.1282,-0.1314,-0.1305,-0.1272,-0.1127,-0.0971,-0.061,-0.0236,0.011,0.0497,0.0745,0.0706,0.0776,0.0667,0.0662,0.0658,0.0619,0.0706,0.0707,0.0707,0.0708,0,0,-0.1029,-0.1118,-0.1163,-0.1293,-0.1352,-0.1417,-0.1438,-0.1395,-0.1306,-0.1163,-0.0985,-0.0706,-0.0266,-0.0007,0.0306,0.0509,0.0511,0.0521,0.0561,0.0387,0.0379,0.0604,0.0536,0,0,0,0,0]}],[{"header":{"parameterUnit":"m.s-1","parameterCategory":2,"la1":30.2991,"la2":30.254,"lo1":-89.0895,"lo2":-89.0444,"dy":0.0017,"dx":0.0017,"nx":28,"ny":28,"refTime":"2024-12-12T03:00:00:Z","depth":"4","parameterNumber":2,"parameterNumberName":"U-component_of_CURRENTS"},"data":[0,0,0,0,0,0,0,0,0,0,0,0,0,0,0,0,0,0,0,0,0,0,0,0,0,0,0,0,0,0,0,0,0,0,0,0,0,0,0,0,0,0,0,0,0,0,0,0,0,0,0,0,0,0,0,0,0,0,-0.1551,-0.1552,0,-0.161,-0.161,-0.1611,-0.1645,-0.1646,-0.1646,-0.1647,-0.1678,-0.1679,-0.1679,0,0,0,0,0,0,0,0,0,0,0,0,0,-0.1455,-0.1457,-0.1551,-0.1552,-0.1553,-0.161,-0.161,-0.1611,-0.1645,-0.1646,-0.1646,-0.1647,-0.1678,-0.1679,-0.1679,0,0,0,0,0,0,0,0,0,0,0,0,0,-0.1502,-0.1457,-0.1551,-0.1579,-0.1582,-0.161,-0.161,-0.1611,-0.1645,-0.1646,-0.1646,-0.1647,-0.1678,-0.1679,-0.1679,-0.1674,0,0,-0.1682,-0.1682,0,0,0,0,0,0,0,0,-0.1499,-0.1505,-0.1574,-0.1577,-0.158,-0.1623,-0.1589,-0.1632,-0.1645,-0.1619,-0.1647,-0.1647,-0.1658,-0.1661,-0.1668,-0.1675,-0.1677,-0.1682,-0.1682,-0.1683,-0.1683,0,0,0,0,0,0,0,-0.1496,-0.1502,-0.1572,-0.1575,-0.1579,-0.1584,-0.1591,-0.1597,-0.1633,-0.1621,-0.1624,-0.1634,-0.166,-0.1667,-0.1669,-0.1677,-0.1682,-0.1683,-0.1683,-0.1683,-0.1762,-0.1763,0,0,0,0,0,0,-0.1493,-0.15,-0.157,-0.1574,-0.1543,-0.1585,-0.1593,-0.1607,-0.1633,-0.1639,-0.1634,-0.1636,-0.1665,-0.1668,-0.167,-0.1741,-0.1683,-0.1683,-0.1684,-0.176,-0.1762,-0.1764,0,0,0,0,0,0,-0.1491,-0.1499,-0.1568,-0.154,-0.1549,-0.1587,-0.1602,-0.1608,-0.1643,-0.1644,-0.1648,-0.1666,-0.1666,-0.1669,-0.1707,-0.174,-0.1684,-0.1685,-0.1758,-0.1761,-0.1763,-0.1835,0,0,0,0,0,0,-0.1488,-0.1498,-0.1518,-0.154,-0.1551,-0.1606,-0.1602,-0.1609,-0.1648,-0.1652,-0.1672,-0.1674,-0.1667,-0.1706,-0.1708,-0.174,-0.1685,-0.1756,-0.1759,-0.1762,-0.183,-0.1839,-0.1847,0,0,0,0,0,-0.1485,-0.1508,-0.1519,-0.1528,-0.1574,-0.1608,-0.1615,-0.164,-0.1649,-0.1673,-0.169,-0.1675,-0.1726,-0.1708,-0.171,-0.1743,-0.1755,-0.1758,-0.1762,-0.1827,-0.1838,-0.1847,0,0,0,0,0,0,-0.1478,-0.1515,-0.1527,-0.1562,-0.1593,-0.1615,-0.1643,-0.1657,-0.169,-0.17,-0.1696,-0.17,-0.1743,-0.1735,-0.1715,-0.1775,-0.1738,-0.1742,-0.1787,-0.1797,-0.1805,-0.18,-0.1686,0,0,0,0,0,-0.1485,-0.1515,-0.1547,-0.1577,-0.1596,-0.1624,-0.1646,-0.1665,-0.1691,-0.1707,-0.1724,-0.174,-0.1755,-0.1771,-0.178,-0.1814,-0.1799,-0.1837,-0.1845,-0.1853,-0.185,-0.1858,-0.1867,-0.1776,-0.1776,-0.1776,0,0,-0.1491,-0.1516,-0.1534,-0.1578,-0.1605,-0.1641,-0.1639,-0.1684,-0.1719,-0.1704,-0.1764,-0.177,-0.177,-0.181,-0.1829,-0.1811,-0.1874,-0.1857,-0.1863,-0.1857,-0.1863,-0.1872,-0.1879,-0.1778,-0.1778,-0.1777,0,0,-0.1511,-0.1542,-0.1572,-0.1604,-0.1652,-0.1671,-0.1691,-0.1733,-0.1762,-0.1812,-0.181,-0.1841,-0.187,-0.1878,-0.1882,-0.1942,-0.1916,-0.195,-0.1992,-0.2001,-0.2008,-0.2014,-0.2018,-0.2024,-0.1957,-0.1957,-0.1957,0,-0.1518,-0.1558,-0.1587,-0.1625,-0.1657,-0.1689,-0.1729,-0.1762,-0.1814,-0.184,-0.1844,-0.1897,-0.19,-0.1938,-0.1961,-0.1961,-0.1958,-0.1954,-0.2011,-0.2016,-0.2021,-0.2024,-0.2029,-0.1961,-0.1961,-0.196,-0.196,0,-0.155,-0.1596,-0.162,-0.1677,-0.1715,-0.1758,-0.1804,-0.185,-0.1887,-0.1913,-0.1972,-0.1982,-0.2008,-0.2021,-0.2009,-0.2052,-0.2037,-0.2018,-0.1983,-0.2035,-0.2034,-0.2038,-0.1967,-0.1965,-0.1964,-0.1963,0,0,-0.1527,-0.1624,-0.1634,-0.1674,-0.1748,-0.178,-0.1849,-0.191,-0.1956,-0.2006,-0.2059,-0.2091,-0.2096,-0.21,-0.2096,-0.2108,-0.2146,-0.2084,-0.2082,-0.2083,-0.2166,-0.204,-0.2032,-0.2138,-0.2139,-0.214,-0.2156,0,-0.1544,-0.162,-0.1667,-0.1745,-0.1787,-0.1846,-0.1906,-0.1968,-0.2018,-0.2078,-0.2101,-0.2146,-0.2126,-0.2146,-0.2157,-0.2148,-0.2159,-0.2143,-0.2119,-0.2118,-0.1995,-0.2033,-0.2143,-0.2159,-0.216,-0.216,-0.2161,0,-0.155,-0.1605,-0.1683,-0.1784,-0.181,-0.1864,-0.196,-0.2017,-0.2101,-0.2141,-0.2188,-0.2205,-0.2241,-0.2212,-0.2224,-0.2216,-0.2197,-0.2185,-0.2185,-0.204,-0.1998,-0.2093,-0.2168,-0.2167,-0.2167,-0.2166,-0.2166,0,-0.1502,-0.1611,-0.1676,-0.1711,-0.1829,-0.1882,-0.1946,-0.2037,-0.2086,-0.2181,-0.222,-0.2265,-0.2288,-0.2281,-0.2258,-0.2248,-0.2259,-0.2238,-0.2108,-0.21,-0.2177,-0.217,-0.2241,-0.2241,-0.2241,-0.2241,-0.2241,0,-0.1482,-0.1538,-0.1666,-0.1701,-0.1778,-0.1871,-0.1954,-0.2024,-0.212,-0.217,-0.2243,-0.227,-0.2305,-0.2313,-0.2285,-0.2204,-0.2279,-0.2114,-0.2093,-0.2209,-0.2206,-0.2181,-0.2173,-0.2242,-0.2242,-0.2242,-0.2241,0,-0.1412,-0.15,-0.1578,-0.1714,-0.1757,-0.1811,-0.1944,-0.1994,-0.2101,-0.2168,-0.2199,-0.2282,-0.2287,-0.2303,-0.2296,-0.2218,-0.217,-0.2124,-0.2258,-0.2244,-0.2002,-0.1998,-0.1977,-0.1972,-0.1968,-0.1965,-0.1963,0,-0.138,-0.1416,-0.1561,-0.1605,-0.1671,-0.1768,-0.1829,-0.1962,-0.2008,-0.2148,-0.2159,-0.2222,-0.2255,-0.2139,-0.2175,-0.2122,-0.2089,-0.206,-0.2016,-0.1992,-0.1974,-0.1977,-0.1978,-0.1957,-0.1956,-0.1955,-0.1954,0,-0.1307,-0.1371,-0.1434,-0.152,-0.1597,-0.1669,-0.1766,-0.1785,-0.193,-0.2051,-0.2056,-0.2056,-0.2062,-0.2044,-0.202,-0.1979,-0.2077,-0.202,-0.2027,-0.1986,-0.1968,-0.1954,-0.196,-0.1941,-0.1943,-0.1944,-0.1945,0,-0.1245,-0.1265,-0.1348,-0.141,-0.1498,-0.1532,-0.1606,-0.1661,-0.1721,-0.1882,-0.1881,-0.1952,-0.2042,-0.197,-0.1949,-0.1901,-0.1863,-0.1794,-0.1812,-0.1826,-0.1767,-0.1722,-0.1599,0,0,0,0,0,-0.1171,-0.1179,-0.1229,-0.1288,-0.1369,-0.1415,-0.1542,-0.1621,-0.1766,-0.172,-0.1794,-0.1794,-0.1771,-0.1809,-0.1722,-0.1873,-0.1866,-0.1765,-0.1796,-0.1869,-0.1884,-0.1827,0,0,0,0,0,0,-0.1121,-0.1162,-0.1181,-0.1164,-0.1178,-0.1248,-0.1321,-0.1428,-0.1412,-0.1566,-0.1554,-0.1677,-0.1669,-0.1778,-0.1677,-0.1689,-0.1671,-0.1821,-0.1816,-0.1861,-0.1874,-0.1886,-0.1833,0,0,0,0,0]},{"header":{"parameterUnit":"m.s-1","parameterCategory":2,"la1":30.2991,"la2":30.254,"lo1":-89.0895,"lo2":-89.0444,"dy":0.0017,"dx":0.0017,"nx":28,"ny":28,"refTime":"2024-12-12T03:00:00:Z","depth":"4","parameterNumber":3,"parameterNumberName":"V-component_of_CURRENTS"},"data":[0,0,0,0,0,0,0,0,0,0,0,0,0,0,0,0,0,0,0,0,0,0,0,0,0,0,0,0,0,0,0,0,0,0,0,0,0,0,0,0,0,0,0,0,0,0,0,0,0,0,0,0,0,0,0,0,0,0,-0.0141,-0.0141,0,-0.0088,-0.0087,-0.0086,-0.0051,-0.0051,-0.005,-0.005,0.0039,0.0041,0.0044,0,0,0,0,0,0,0,0,0,0,0,0,0,-0.0171,-0.017,-0.0141,-0.0141,-0.014,-0.0088,-0.0087,-0.0086,-0.0051,-0.0051,-0.005,-0.005,0.0038,0.0041,0.0044,0,0,0,0,0,0,0,0,0,0,0,0,0,-0.0141,-0.017,-0.0141,-0.0117,-0.0114,-0.0088,-0.0087,-0.0086,-0.0051,-0.0051,-0.005,-0.005,0.0038,0.0041,0.0044,0.006,0,0,0.0054,0.0056,0,0,0,0,0,0,0,0,-0.0142,-0.014,-0.0121,-0.0119,-0.0116,-0.0077,-0.0065,-0.0036,-0.0051,-0.0074,-0.005,-0.005,0.0003,0.0009,0.002,0.0065,0.0068,0.0055,0.0057,0.0058,0.0059,0,0,0,0,0,0,0,-0.0145,-0.0141,-0.0119,-0.012,-0.0117,-0.0094,-0.009,-0.0059,-0.0036,-0.0072,-0.0069,-0.0065,0.0005,0.0016,0.0022,0.007,0.0055,0.0058,0.006,0.0061,0.0145,0.0145,0,0,0,0,0,0,-0.0156,-0.0144,-0.0121,-0.0117,-0.013,-0.0094,-0.0089,-0.0088,-0.0037,-0.0029,-0.0065,-0.0064,0.001,0.0018,0.0025,0.0053,0.0058,0.0061,0.0063,0.0145,0.0145,0.0146,0,0,0,0,0,0,-0.0157,-0.0154,-0.0123,-0.013,-0.0124,-0.0094,-0.0093,-0.0088,-0.0078,-0.0033,-0.0024,-0.0062,0.0011,0.0021,0.0053,0.0057,0.0063,0.0066,0.0145,0.0145,0.0145,0.0106,0,0,0,0,0,0,-0.0158,-0.0155,-0.0161,-0.0131,-0.0125,-0.0114,-0.0093,-0.0087,-0.0076,-0.0073,-0.0027,-0.0018,0.0012,0.0048,0.0056,0.0062,0.0069,0.0144,0.0145,0.0145,0.0107,0.0105,0.0103,0,0,0,0,0,-0.0159,-0.017,-0.0161,-0.0159,-0.0132,-0.0114,-0.0109,-0.0085,-0.0076,-0.0075,-0.0041,-0.002,0.0057,0.0051,0.0061,0.0067,0.0144,0.0145,0.0145,0.0108,0.0105,0.0103,0,0,0,0,0,0,-0.0187,-0.0166,-0.0157,-0.0161,-0.0142,-0.0109,-0.0108,-0.009,-0.0063,-0.0061,-0.0016,-0.0005,0.0023,0.0051,0.0043,0.0093,0.0104,0.0106,0.0072,0.007,0.0068,0.0052,0.0071,0,0,0,0,0,-0.0196,-0.0199,-0.0172,-0.0177,-0.0169,-0.0139,-0.013,-0.0114,-0.0085,-0.0074,-0.0039,-0.0001,0.0034,0.0055,0.0086,0.0115,0.0145,0.0126,0.0124,0.0122,0.0116,0.0168,0.017,0.0147,0.0147,0.0147,0,0,-0.0209,-0.0198,-0.02,-0.0183,-0.0167,-0.0161,-0.0133,-0.0125,-0.0114,-0.0068,-0.0044,-0.0009,0.0038,0.0069,0.0085,0.0093,0.0144,0.0122,0.012,0.0116,0.0169,0.0171,0.0173,0.0147,0.0147,0.0147,0,0,-0.0237,-0.0226,-0.0237,-0.0223,-0.0204,-0.0183,-0.0183,-0.0151,-0.0132,-0.0106,-0.0068,-0.0029,0.0018,0.0059,0.0085,0.0093,0.0128,0.01,0.0083,0.0134,0.0136,0.0139,0.0177,0.0183,0.0104,0.0104,0.0104,0,-0.0254,-0.0262,-0.0237,-0.0241,-0.0234,-0.0196,-0.0202,-0.0175,-0.0135,-0.0117,-0.0106,-0.0024,0.0016,0.0066,0.0067,0.0089,0.0116,0.0087,0.0131,0.0134,0.0137,0.0176,0.0183,0.0102,0.0102,0.0102,0.0102,0,-0.0285,-0.029,-0.0296,-0.0287,-0.0274,-0.0274,-0.0236,-0.0217,-0.019,-0.0158,-0.011,-0.0051,-0.0001,0.002,0.0045,0.0089,0.01,0.0118,0.0134,0.0137,0.0178,0.0186,0.0099,0.01,0.01,0.0101,0,0,-0.0325,-0.0321,-0.0322,-0.0329,-0.03,-0.0296,-0.0273,-0.0241,-0.0227,-0.0176,-0.0149,-0.0079,-0.0045,-0.0014,0.0032,0.0078,0.0125,0.01,0.0104,0.0132,0.0227,0.0208,0.0216,0.0149,0.015,0.0151,0.0245,0,-0.0357,-0.0384,-0.0364,-0.0381,-0.039,-0.0346,-0.0331,-0.0294,-0.0251,-0.0214,-0.0138,-0.0099,-0.0057,-0.0035,0.002,0.0097,0.0145,0.0097,0.0224,0.0228,0.0207,0.0224,0.0155,0.0252,0.0253,0.0255,0.0256,0,-0.0391,-0.0406,-0.0436,-0.0433,-0.0433,-0.0434,-0.0403,-0.0382,-0.0311,-0.0277,-0.0212,-0.0154,-0.0073,-0.0045,0.0096,0.0061,0.0135,0.0197,0.0202,0.0203,0.0225,0.0251,0.0271,0.027,0.0269,0.0268,0.0267,0,-0.0436,-0.0451,-0.0482,-0.0481,-0.0472,-0.0474,-0.0463,-0.0408,-0.0392,-0.0316,-0.0295,-0.0186,-0.0134,-0.0024,0.0107,0.0101,0.0257,0.0271,0.0327,0.0327,0.0332,0.0328,0.0366,0.0366,0.0366,0.0366,0.0365,0,-0.0473,-0.0496,-0.0512,-0.0529,-0.0563,-0.0532,-0.0545,-0.051,-0.0461,-0.0444,-0.0337,-0.0294,-0.0128,-0.0016,0.0098,0.0237,0.0258,0.0324,0.0352,0.0313,0.0306,0.0338,0.0333,0.0369,0.0368,0.0368,0.0367,0,-0.0511,-0.0521,-0.0561,-0.0577,-0.0589,-0.0613,-0.0616,-0.0616,-0.056,-0.0531,-0.0511,-0.037,-0.0221,-0.0054,0.0135,0.0219,0.0357,0.0401,0.0342,0.0365,0.0394,0.0386,0.0469,0.0469,0.0469,0.0469,0.0469,0,-0.0531,-0.0558,-0.0611,-0.0648,-0.0662,-0.0693,-0.0714,-0.0675,-0.0668,-0.0575,-0.0564,-0.0416,-0.0307,-0.0054,0.0122,0.0346,0.0374,0.044,0.042,0.0386,0.0406,0.0398,0.039,0.047,0.047,0.047,0.047,0,-0.0567,-0.0592,-0.0627,-0.0709,-0.0753,-0.0793,-0.0813,-0.0816,-0.0757,-0.0712,-0.0603,-0.0451,-0.028,-0.0069,0.0111,0.027,0.0394,0.0442,0.0443,0.0424,0.0389,0.0405,0.0398,0.047,0.047,0.047,0.047,0,-0.0593,-0.0633,-0.0691,-0.0754,-0.0823,-0.0867,-0.0871,-0.085,-0.0829,-0.0719,-0.0685,-0.0479,-0.0351,-0.0107,0.0057,0.0214,0.0248,0.0284,0.0293,0.0295,0.0215,0.0143,0.0173,0,0,0,0,0,-0.061,-0.0659,-0.0731,-0.0798,-0.0867,-0.0903,-0.0925,-0.0911,-0.0859,-0.0799,-0.0738,-0.0575,-0.0306,-0.0178,-0.0026,0.0052,0.0268,0.0233,0.0312,0.0473,0.0472,0.0407,0,0,0,0,0,0,-0.0625,-0.0695,-0.0732,-0.0821,-0.0876,-0.0941,-0.0959,-0.0925,-0.0878,-0.0805,-0.0662,-0.0559,-0.0298,-0.0399,-0.0032,0.0021,0.0086,0.037,0.0373,0.0473,0.0473,0.0472,0.0405,0,0,0,0,0]}]]